DW6399 Weather Reports


time (UTC)temp
C
wind
direction
speed
KPH
gust
KPH
rain 1hr
cm
rain 24hr
cm
rain mn
cm
humidity
%
barometer
mb
20260507163603 6 56 3.2 14.5 0.00 0.05 0.05 75 1013.8
20260507162704 6 54 3.2 11.3 0.00 0.05 0.05 73 1013.7
20260507161803 6 67 3.2 11.3 0.00 0.05 0.05 72 1013.5
20260507160904 6 15 1.6 6.4 0.00 0.05 0.05 70 1013.4
20260507160004 6 349 1.6 6.4 0.00 0.05 0.05 69 1013.4
20260507155404 6 353 1.6 8.0 0.00 0.05 0.05 69 1013.3
20260507154504 7 24 1.6 8.0 0.00 0.05 0.05 67 1013.4
20260507153604 7 61 1.6 4.8 0.00 0.05 0.05 66 1013.4
20260507152703 7 61 0.0 6.4 0.00 0.05 0.05 65 1013.3
20260507151803 7 61 1.6 6.4 0.00 0.05 0.05 63 1013.4
20260507150925 7 88 3.2 6.4 0.00 0.05 0.05 63 1013.5
20260507150004 7 88 3.2 11.3 0.00 0.05 0.05 64 1013.5
20260507145404 7 132 3.2 8.0 0.00 0.05 0.05 66 1013.5
20260507144504 7 142 4.8 11.3 0.00 0.05 0.05 67 1013.5
20260507143603 7 133 4.8 12.9 0.00 0.05 0.05 69 1013.6
20260507142724 7 144 4.8 12.9 0.00 0.05 0.05 69 1013.6
20260507141803 6 146 3.2 9.7 0.00 0.05 0.05 72 1013.6
20260507140903 6 207 1.6 6.4 0.00 0.05 0.05 72 1013.6
20260507140025 5 303 1.6 6.4 0.00 0.05 0.05 75 1013.6
20260507135403 5 333 4.8 6.4 0.00 0.05 0.05 73 1013.6
20260507134503 5 333 9.7 16.1 0.00 0.05 0.05 78 1013.6
20260507133604 4 316 12.9 20.9 0.00 0.05 0.05 78 1014.0
20260507132703 4 311 12.9 19.3 0.00 0.05 0.05 79 1014.2
20260507131803 5 316 9.7 17.7 0.03 0.05 0.05 80 1014.1
20260507130903 5 327 9.7 17.7 0.03 0.05 0.05 80 1014.0
20260507130025 5 335 6.4 12.9 0.05 0.05 0.05 81 1014.1
20260507125403 5 346 4.8 14.5 0.05 0.05 0.05 81 1014.0
20260507124503 5 318 9.7 16.1 0.05 0.05 0.05 85 1013.9
20260507123604 5 331 11.3 20.9 0.05 0.05 0.05 83 1014.0
20260507122705 4 318 11.3 20.9 0.05 0.05 0.05 84 1014.2
20260507121803 4 287 6.4 14.5 0.03 0.03 0.03 82 1014.3
20260507120903 5 222 4.8 9.7 0.03 0.03 0.03 80 1014.4
20260507120004 5 282 4.8 11.3 0.00 0.00 0.00 75 1014.3
20260507115424 5 251 1.6 6.4 0.00 0.00 0.00 76 1014.2
20260507114524 6 316 8.0 22.5 0.00 0.00 0.00 71 1014.1
20260507113603 6 316 4.8 22.5 0.00 0.00 0.00 64 1013.9
20260507112703 7 356 0.0 4.8 0.00 0.00 0.00 62 1013.7
20260507111803 7 183 6.4 14.5 0.00 0.00 0.00 63 1013.6
20260507110903 7 199 6.4 19.3 0.00 0.00 0.00 63 1013.6
20260507110025 7 291 6.4 19.3 0.00 0.00 0.00 59 1013.5
20260507105403 7 309 3.2 11.3 0.00 0.00 0.00 58 1013.5
20260507104504 7 350 3.2 14.5 0.00 0.00 0.00 62 1013.5
20260507103603 6 8 4.8 8.0 0.00 0.00 0.00 62 1013.5
20260507102703 6 283 3.2 8.0 0.00 0.00 0.00 65 1013.6
20260507101803 6 271 3.2 16.1 0.00 0.00 0.00 67 1013.6
20260507100903 6 291 11.3 24.1 0.00 0.00 0.00 63 1013.6
20260507100004 7 290 16.1 30.6 0.00 0.00 0.00 57 1013.3
20260507095403 7 294 16.1 29.0 0.00 0.00 0.00 54 1013.4
20260507094504 7 292 14.5 22.5 0.00 0.00 0.00 53 1013.4
20260507093603 7 275 14.5 27.4 0.00 0.00 0.00 55 1013.3
20260507092703 7 279 11.3 25.7 0.00 0.00 0.00 55 1013.2
20260507091803 8 261 8.0 20.9 0.00 0.00 0.00 50 1013.1
20260507090924 8 270 6.4 16.1 0.00 0.00 0.00 49 1013.0
20260507090024 8 282 12.9 25.7 0.00 0.00 0.00 46 1013.0
20260507085403 9 289 11.3 25.7 0.00 0.00 0.00 44 1012.9
20260507084503 10 272 8.0 24.1 0.00 0.00 0.00 43 1012.9
20260507083603 10 239 6.4 16.1 0.00 0.00 0.00 44 1012.8
20260507082724 10 186 8.0 24.1 0.00 0.00 0.00 44 1013.0
20260507081803 10 188 9.7 24.1 0.00 0.00 0.00 48 1012.9
20260507080903 9 207 6.4 19.3 0.00 0.00 0.00 50 1013.0
20260507080004 9 203 4.8 14.5 0.00 0.00 0.00 51 1013.0
20260507075403 9 198 6.4 16.1 0.00 0.00 0.00 52 1013.0
20260507074503 8 213 6.4 19.3 0.00 0.00 0.00 54 1012.9
20260507073603 8 225 6.4 17.7 0.00 0.00 0.00 54 1012.9
20260507072703 8 164 8.0 17.7 0.00 0.00 0.00 57 1012.9
20260507071803 8 164 9.7 19.3 0.00 0.00 0.00 62 1012.9
20260507070903 7 170 8.0 14.5 0.00 0.00 0.00 63 1012.9
20260507070024 7 168 9.7 17.7 0.00 0.00 0.00 65 1012.9
20260507065403 7 174 8.0 17.7 0.00 0.00 0.00 65 1012.9
20260507064503 7 166 8.0 16.1 0.00 0.00 0.00 66 1012.9
20260507063624 7 156 9.7 16.1 0.00 0.00 0.00 67 1012.8
20260507062724 6 162 8.0 14.5 0.00 0.00 0.00 69 1012.9
20260507061803 6 166 4.8 12.9 0.00 0.00 0.00 72 1012.9
20260507060925 5 248 4.8 11.3 0.00 0.00 0.00 70 1012.8
20260507060003 5 228 3.2 12.9 0.00 0.00 0.00 71 1012.8
20260507055403 5 203 3.2 12.9 0.00 0.00 0.00 73 1012.8
20260507054503 5 203 4.8 14.5 0.00 0.00 0.00 75 1012.7
20260507053624 4 210 3.2 9.7 0.00 0.00 0.00 76 1012.8
20260507052703 4 200 3.2 9.7 0.00 0.00 0.00 77 1012.8
20260507051803 4 197 3.2 11.3 0.00 0.00 0.00 77 1012.8
20260507050903 4 202 3.2 11.3 0.00 0.00 0.00 78 1012.6
20260507050003 4 177 4.8 9.7 0.00 0.00 0.00 79 1012.2
20260507045403 3 186 6.4 11.3 0.00 0.00 0.00 80 1012.8
20260507044503 3 185 3.2 11.3 0.00 0.00 0.00 84 1012.3
20260507043603 2 157 3.2 8.0 0.00 0.00 0.00 85 1012.3
20260507042703 1 171 3.2 6.4 0.00 0.00 0.00 88 1012.7
20260507041824 1 179 1.6 6.4 0.00 0.00 0.00 91 1012.3
20260507040924 0 175 0.0 1.6 0.00 0.00 0.00 94 1012.0
20260507040003 -1 0 0.0 0.0 0.00 0.00 0.00 93 1011.5
20260507035403 -2 176 0.0 3.2 0.00 0.00 0.00 93 1010.3
20260507034503 -2 176 1.6 4.8 0.00 0.00 0.00 92 1013.3
20260507033624 -2 176 1.6 4.8 0.00 0.00 0.00 93 1012.5
20260507032724 -2 176 4.8 6.4 0.00 0.00 0.00 94 1012.5
20260507031803 -3 176 3.2 6.4 0.00 0.00 0.00 93 1012.3
20260507030903 -3 0 0.0 0.0 0.00 0.00 0.00 93 1012.3
20260507030003 -3 176 0.0 3.2 0.00 0.00 0.00 93 1012.2
20260507025424 -3 176 0.0 3.2 0.00 0.00 0.00 92 1012.3
20260507024503 -3 0 0.0 0.0 0.00 0.00 0.00 92 1012.3
20260507023624 -3 176 0.0 1.6 0.00 0.00 0.00 92 1012.1
20260507022703 -3 0 0.0 0.0 0.00 0.00 0.00 92 1012.1
20260507021803 -3 0 0.0 0.0 0.00 0.00 0.00 92 1012.1
20260507020903 -3 0 0.0 0.0 0.00 0.00 0.00 93 1012.1
20260507020024 -3 0 0.0 0.0 0.00 0.00 0.00 92 1012.1
20260507015403 -3 0 0.0 0.0 0.00 0.00 0.00 92 1012.1
20260507014503 -3 0 0.0 0.0 0.00 0.00 0.00 92 1012.1
20260507013603 -3 0 0.0 0.0 0.00 0.00 0.00 92 1012.1
20260507012703 -3 176 0.0 3.2 0.00 0.00 0.00 92 1012.0
20260507011803 -3 0 0.0 0.0 0.00 0.00 0.00 92 1012.0
20260507010903 -3 0 0.0 0.0 0.00 0.00 0.00 92 1012.1
20260507010004 -3 176 0.0 1.6 0.00 0.00 0.00 92 1012.1
20260507005403 -3 176 0.0 4.8 0.00 0.00 0.00 92 1012.0
20260507004503 -3 0 0.0 0.0 0.00 0.00 0.00 92 1011.9
20260507003603 -2 0 0.0 0.0 0.00 0.00 0.00 92 1011.7
20260507002724 -2 0 0.0 0.0 0.00 0.00 0.00 92 1011.7
20260507001803 -2 0 0.0 0.0 0.00 0.00 0.00 92 1011.7
20260507000903 -3 240 0.0 0.0 0.00 0.00 0.00 92 1011.7
20260507000004 -3 240 0.0 1.6 0.00 0.00 0.00 92 1011.6
20260506235403 -3 240 0.0 1.6 0.00 0.00 0.00 92 1011.6
20260506234524 -3 240 0.0 3.2 0.00 0.00 0.00 91 1011.7
20260506233624 -2 240 0.0 1.6 0.00 0.00 0.00 92 1011.6
20260506232724 -2 240 0.0 3.2 0.00 0.00 0.00 92 1011.5
20260506231803 -2 240 0.0 3.2 0.00 0.00 0.00 92 1011.5
20260506230903 -2 243 0.0 4.8 0.00 0.00 0.00 92 1011.5
20260506230003 -2 0 0.0 0.0 0.00 0.00 0.00 92 1011.5
20260506225403 -2 0 0.0 0.0 0.00 0.00 0.00 92 1011.5
20260506224503 -2 0 0.0 0.0 0.00 0.00 0.00 92 1011.4
20260506223603 -2 331 0.0 1.6 0.00 0.00 0.00 92 1011.3
20260506222703 -2 331 0.0 3.2 0.00 0.00 0.00 92 1011.2
20260506221803 -2 331 0.0 3.2 0.00 0.00 0.00 92 1011.1
20260506220903 -2 0 0.0 0.0 0.00 0.00 0.00 92 1011.2
20260506220024 -2 0 0.0 0.0 0.00 0.00 0.00 92 1011.1
20260506215403 -2 0 0.0 0.0 0.00 0.00 0.00 91 1011.0
20260506214503 -1 331 0.0 1.6 0.00 0.00 0.00 91 1011.0
20260506213603 -1 331 0.0 3.2 0.00 0.00 0.00 92 1010.9
20260506212703 -1 331 0.0 3.2 0.00 0.00 0.00 92 1011.0
20260506211803 -2 331 0.0 3.2 0.00 0.00 0.00 91 1010.9
20260506210903 -2 331 0.0 3.2 0.00 0.00 0.00 91 1010.9
20260506210004 -2 0 0.0 0.0 0.00 0.00 0.00 90 1010.8
20260506205403 -1 0 0.0 0.0 0.00 0.00 0.00 91 1010.8
20260506204503 -2 0 0.0 0.0 0.00 0.00 0.00 91 1010.8
20260506203603 -2 331 0.0 3.2 0.00 0.00 0.00 90 1010.8
20260506202703 -2 0 0.0 0.0 0.00 0.00 0.00 90 1010.9
20260506201803 -1 331 0.0 1.6 0.00 0.00 0.00 91 1010.8
20260506200924 -2 331 0.0 3.2 0.00 0.00 0.00 89 1010.7
20260506200003 -2 331 0.0 1.6 0.00 0.00 0.00 89 1010.7
20260506195403 -2 331 0.0 1.6 0.00 0.00 0.00 88 1010.7
20260506194503 -1 331 0.0 1.6 0.00 0.00 0.00 88 1010.7
20260506193603 -1 331 0.0 1.6 0.00 0.00 0.00 88 1010.7
20260506192724 -1 331 0.0 1.6 0.00 0.00 0.00 88 1010.7
20260506191803 -1 0 0.0 0.0 0.00 0.00 0.00 87 1010.7
20260506190903 0 0 0.0 0.0 0.00 0.00 0.00 85 1010.6
20260506190006 0 0 0.0 0.0 0.00 0.00 0.00 84 1010.5
20260506185426 0 0 0.0 0.0 0.00 0.00 0.00 84 1010.4
20260506184505 1 0 0.0 0.0 0.00 0.00 0.00 82 1010.4
20260506183605 1 0 0.0 0.0 0.00 0.00 0.00 81 1010.3
20260506182705 2 0 0.0 0.0 0.00 0.00 0.00 78 1010.2
20260506181804 3 331 3.2 8.0 0.00 0.00 0.00 78 1010.0
20260506180905 3 331 3.2 4.8 0.00 0.00 0.00 78 1009.9
20260506180006 3 334 6.4 9.7 0.00 0.00 0.00 78 1009.9
20260506175405 3 331 6.4 9.7 0.00 0.00 0.00 77 1009.8
20260506174526 4 330 4.8 8.0 0.00 0.00 0.00 76 1009.8
20260506173605 4 306 6.4 12.9 0.00 0.00 0.00 76 1009.8
20260506172705 4 317 6.4 12.9 0.00 0.00 0.00 77 1009.6
20260506171805 4 318 9.7 19.3 0.00 0.00 0.00 76 1009.6
20260506170904 4 306 9.7 17.7 0.00 0.00 0.00 77 1009.5
20260506170026 4 306 11.3 17.7 0.00 0.00 0.00 77 1009.4
20260506165405 3 317 9.7 16.1 0.00 0.00 0.00 77 1009.4
20260506164505 4 299 6.4 14.5 0.00 0.00 0.00 78 1009.3